RH
98 96 100 91 81 63 61 63 58 48 48 25 23 17 22 26 30 31 26 29 26 29 36 39 60 100 93 86 91 87 100 100 100 100 100 100 100 77 56 48 29 25 28 35
100 100 100 94 75 76 54 45 44 42 37 27 20 16 20 24 21 19 18 18 25 33 44 52 86 100 100 100 100 100 100 100 100 100 100 100 93 58 42 40 26 27 44 70
100 100 100 100 100 86 42 34 34 30 27 23 17 18 18 18 16 19 18 19 24 38 56 70 88 100 100 95 100 100 100 100 80 75 100 95 99 67 66 35 29 37 69 73
94 100 100 100 41 35 31 28 25 21 19 18 18 16 16 18 17 19 22 23 43 46 72 84 82 98 82 90 100 98 100 100 100 100 100 100 100 86 62 35 30 66 76 68
99 88 55 55 38 26 24 23 23 19 16 14 22 14 21 20 21 22 26 41 58 83 97 99 98 100 78 88 82 52 72 99 100 100 100 89 94 74 60 41 35 76 75 69
59 43 32 30 25 23 23 21 18 17 16 16 19 14 25 23 27 54 54 51 68 78 95 100 100 95 98 91 100 100 100 100 100 92 97 87 88 68 44 46 48 76 78 68
38 29 26 23 20 22 21 17 14 15 18 17 15 17 24 30 70 88 86 86 83 72 72 76 98 97 90 87 67 70 100 100 80 100 79 79 48 56 59 57 67 81 79 49
22 27 28 25 28 25 24 18 17 15 15 17 16 23 25 56 84 100 89 100 100 98 98 100 100 100 86 96 100 98 89 91 89 98 86 93 100 75 52 46 78 90 54 23
20 21 30 28 24 20 25 21 16 15 16 16 20 30 33 87 86 100 100 100 100 100 100 100 100 100 92 100 100 98 74 86 91 69 72 100 100 98 46 49 88 79 31 24
19 15 29 27 23 27 16 17 17 15 16 18 26 39 73 100 100 100 100 100 100 100 100 93 100 100 100 100 94 61 100 100 100 100 90 92 91 76 36 74 96 55 32 27
14 14 26 22 22 22 17 17 16 14 16 19 37 54 100 100 100 100 88 100 100 100 100 100 98 95 89 79 82 44 77 100 92 71 74 74 59 63 72 92 88 50 31 29
14 12 16 21 18 19 15 15 14 14 18 24 58 73 100 100 100 100 100 84 100 100 100 100 99 98 87 94 99 83 49 59 72 68 74 78 69 90 100 92 75 54 36 28
12 14 17 18 15 14 14 13 12 14 15 36 79 100 100 100 100 100 99 85 100 100 100 100 100 100 100 100 100 98 63 50 55 44 55 69 85 100 100 98 72 56 45 33
12 10 9 11 9 10 10 14 12 13 19 51 86 100 100 100 100 100 100 83 99 100 100 100 100 100 100 100 88 61 49 48 37 46 95 70 100 100 100 99 85 65 67 60
8 8 10 10 10 14 12 15 16 19 24 53 90 100 100 100 100 100 100 93 83 100 100 100 100 100 100 89 60 54 50 45 62 55 94 97 100 100 100 100 90 70 85 91
10 8 10 10 11 13 13 21 18 17 24 60 100 97 100 100 100 100 86 79 82 85 100 100 100 93 100 98 68 64 60 89 77 69 100 100 100 100 100 98 97 85 90 100
8 8 9 8 12 15 19 22 19 16 17 52 100 89 53 87 96 100 100 100 100 100 100 100 99 100 86 69 60 62 68 95 90 88 100 100 100 100 100 100 100 100 81 86
8 8 7 9 14 18 19 19 18 22 21 23 30 33 64 75 87 100 100 100 100 100 100 100 100 90 69 72 72 84 85 86 69 93 100 100 100 100 97 99 100 100 96 93
7 7 8 12 16 21 18 12 14 21 19 18 18 23 36 61 91 100 100 100 100 100 100 100 100 98 75 76 96 93 92 98 96 100 100 100 100 100 79 96 98 99 100 100
8 8 9 10 14 18 13 17 19 28 29 23 22 22 26 48 82 89 100 100 100 100 100 100 97 93 87 97 100 100 100 100 98 100 100 100 100 91 70 87 100 100 100 100
9 10 11 12 13 11 8 19 21 31 32 26 28 32 32 53 80 82 95 100 100 100 86 99 92 98 91 98 100 100 100 100 100 100 100 100 100 97 97 98 100 100 100 100
11 11 12 15 19 16 15 19 20 24 27 28 27 38 42 64 78 88 95 93 96 95 92 100 99 91 96 100 100 100 100 100 100 100 100 100 100 100 100 100 100 100 100 100
10 11 11 13 17 17 21 22 29 37 38 30 28 33 39 53 77 88 100 93 87 92 96 100 100 83 95 100 100 100 100 100 100 100 100 100 100 100 100 100 100 100 100 100
8 10 11 12 15 18 19 20 26 30 33 34 32 30 31 46 70 88 100 99 91 89 100 100 100 81 94 100 100 100 100 100 100 100 100 100 100 100 100 100 100 100 100 100
10 12 11 14 15 17 16 15 18 24 27 29 30 32 41 53 70 86 100 98 99 94 99 100 100 85 95 100 100 100 100 100 100 100 100 100 100 100 100 100 100 100 100 100
10 11 13 15 16 18 19 20 19 20 25 27 28 31 35 53 64 79 96 98 98 98 94 100 86 88 96 100 100 100 100 100 100 100 100 100 100 100 100 100 100 100 100 100
Wind_Speed
91 85 92 94 92 86 86 89 86 80 80 81 75 72 71 72 72 71 74 77 75 70 77 73 58 57 46 48 46 39 48 58 58 51 58 60 53 59 63 67 62 42 30 27
89 91 96 97 91 90 91 90 83 76 79 80 77 70 68 68 67 67 69 65 66 64 69 64 59 54 48 49 49 41 46 55 61 53 57 53 56 62 64 60 52 35 28 28
97 101 93 95 100 102 93 85 80 76 78 79 76 66 65 63 61 60 60 57 58 58 61 67 64 55 60 49 43 33 45 54 55 53 57 57 60 61 57 57 42 32 32 30
99 93 99 105 93 92 84 88 83 78 76 73 73 60 60 58 55 54 55 50 51 52 57 62 65 62 59 51 46 42 46 55 60 62 59 57 59 58 61 53 37 35 32 29
104 103 98 96 92 88 78 81 82 79 73 66 62 59 51 54 49 47 44 46 48 53 60 62 65 61 57 58 58 49 47 48 55 57 61 57 58 62 60 51 38 37 32 33
97 93 91 90 85 81 80 82 76 69 64 54 62 49 46 49 41 36 38 39 46 50 59 65 65 62 60 54 41 48 56 60 60 61 58 60 61 62 63 45 42 38 34 32
91 86 87 87 81 79 81 75 69 58 59 49 50 40 42 38 31 32 33 37 41 49 53 57 62 62 59 54 49 43 47 53 58 60 59 61 66 66 50 45 43 38 34 31
81 75 86 80 79 77 73 71 62 56 51 46 42 35 38 31 31 32 33 34 33 44 46 52 54 55 52 44 46 51 55 54 59 60 58 60 61 59 44 39 43 36 32 30
78 69 77 80 74 66 62 55 55 46 44 37 36 34 33 27 26 27 33 41 41 39 42 46 45 47 44 45 47 48 51 56 61 68 66 53 54 51 43 44 41 36 29 26
77 67 71 71 63 59 55 52 47 41 36 32 33 34 24 19 28 39 42 40 40 37 36 42 38 40 44 48 49 42 31 31 43 46 51 58 46 38 40 45 38 33 29 25
67 62 51 64 55 57 51 44 41 36 33 33 33 32 43 42 36 40 40 45 45 45 43 41 36 37 40 40 43 42 44 45 53 48 50 43 40 38 46 43 39 33 27 25
59 48 45 53 55 52 47 39 36 33 33 35 35 34 48 55 54 50 54 46 45 47 47 43 38 41 42 46 49 51 51 50 38 47 50 44 38 43 47 42 38 33 27 26
52 44 40 49 51 45 40 37 37 37 35 38 39 43 47 56 60 54 57 45 47 50 49 43 43 44 48 51 54 56 58 59 60 60 54 38 45 46 45 41 38 33 29 25
46 42 38 47 44 41 39 37 38 40 37 42 45 51 57 61 64 67 62 53 47 49 49 48 47 46 45 46 52 58 53 46 43 42 44 46 49 50 47 44 41 36 33 28
42 41 35 39 37 39 38 37 37 39 44 46 52 60 62 62 64 68 63 58 52 47 50 50 50 50 52 55 56 47 36 37 37 41 41 56 52 51 49 48 43 38 35 32
39 35 35 34 34 36 34 39 43 46 48 53 62 68 67 64 63 61 59 50 44 49 52 48 46 51 50 49 49 45 31 29 39 45 54 55 56 54 52 50 45 43 40 36
33 32 35 32 31 34 37 46 45 43 50 57 66 66 65 70 65 60 57 53 49 46 46 50 52 53 52 49 43 35 35 38 40 53 59 60 59 59 56 53 48 45 43 41
29 31 32 29 34 38 42 46 44 46 50 59 60 58 59 63 64 64 60 54 48 47 50 50 49 51 48 45 36 35 38 43 49 57 68 63 59 61 59 54 50 46 42 42
26 28 27 32 35 43 49 45 34 41 47 51 53 53 54 57 62 68 67 64 59 54 49 50 48 48 41 39 35 37 39 46 52 58 68 70 68 64 60 53 50 49 47 45
23 25 29 35 41 48 46 40 36 41 43 42 46 50 49 52 58 58 68 68 62 58 56 51 50 41 39 35 37 39 40 49 56 58 61 67 68 66 59 54 52 52 52 52
22 25 28 32 38 37 31 40 40 42 47 43 41 47 47 50 55 55 56 64 63 60 54 51 46 40 39 40 39 43 43 40 56 54 57 58 61 61 58 57 56 57 57 57
24 27 28 30 36 32 30 28 31 39 45 44 41 46 50 51 51 51 53 51 52 57 50 49 44 43 39 46 45 48 50 48 52 48 48 54 56 61 60 60 61 60 61 61
27 30 32 34 36 34 35 35 34 38 43 44 41 46 50 51 51 51 51 47 47 50 50 49 45 44 42 50 47 48 49 48 52 53 53 52 52 55 59 59 56 55 59 59
21 27 35 36 36 38 40 41 43 46 47 45 41 42 49 52 53 54 55 53 48 51 52 47 52 48 45 51 53 51 53 52 58 57 57 56 55 53 55 57 60 62 63 62
20 25 31 34 37 37 39 40 42 47 48 46 46 46 49 54 56 55 56 56 56 54 54 53 55 53 50 56 57 57 55 55 56 57 61 64 65 62 60 62 66 67 62 59
19 22 28 32 37 38 39 39 40 43 45 44 44 46 48 53 57 57 57 58 61 60 59 60 59 56 56 59 62 62 62 61 62 63 62 65 70 71 71 66 72 74 70 67
Wind_Direction
290 289 287 291 293 293 293 287 284 282 280 278 279 277 275 272 271 267 263 259 255 250 246 239 236 243 251 253 256 258 262 265 269 277 278 283 285 289 296 300 303 281 252 233
289 288 289 291 293 295 294 288 286 283 280 281 280 278 274 272 269 263 258 255 250 246 242 231 234 237 242 249 254 259 263 268 270 274 276 279 287 293 296 303 298 261 227 216
288 287 290 294 294 293 290 285 282 281 280 281 279 278 275 271 266 260 255 252 248 241 236 230 224 234 247 235 255 253 260 261 268 271 273 282 286 291 299 306 285 237 220 223
286 282 284 285 289 285 286 284 284 283 280 278 277 275 275 264 260 254 248 247 243 243 236 229 232 230 232 240 242 246 256 265 268 272 276 280 284 289 293 303 265 225 225 229
283 287 288 285 284 285 283 281 284 283 280 274 276 273 264 261 256 249 246 240 235 233 233 227 224 231 239 245 245 248 256 266 273 269 273 278 284 287 296 301 248 227 229 237
287 287 286 285 285 287 285 281 280 280 279 277 269 272 258 253 251 244 242 236 228 228 229 226 230 236 239 241 241 252 260 260 265 271 271 274 280 284 296 291 237 229 235 243
286 285 285 285 284 283 282 281 281 280 274 272 268 264 250 247 238 238 238 233 229 230 230 233 234 236 239 241 240 245 251 259 264 270 270 273 281 287 283 285 230 229 238 247
282 286 285 285 285 283 284 281 280 274 273 269 264 250 242 230 225 233 233 231 231 231 231 231 232 233 235 239 246 247 255 264 265 271 277 281 283 284 272 254 224 230 239 244
284 284 283 283 280 279 273 275 272 272 265 258 249 237 228 214 216 232 222 220 226 229 228 230 230 234 235 241 247 254 257 261 266 271 275 278 279 279 257 225 219 229 235 245
284 281 280 277 277 275 271 269 266 262 254 242 238 225 192 176 204 227 225 219 226 229 228 223 223 226 232 238 242 245 262 267 273 270 271 276 271 254 228 211 217 226 232 240
283 281 272 272 271 269 268 264 257 250 245 234 224 208 173 183 210 231 222 218 226 230 233 228 230 230 234 239 241 238 240 248 254 270 272 264 258 216 209 206 216 223 228 235
282 277 271 267 264 261 260 251 246 242 228 225 209 200 185 194 213 228 228 216 219 226 228 221 233 230 238 242 243 247 238 247 243 256 260 253 219 202 203 208 216 221 226 233
281 275 263 257 258 257 253 246 241 231 225 215 201 198 198 207 216 218 227 214 217 223 223 230 228 231 237 241 243 248 254 261 259 241 242 230 203 201 204 209 216 220 223 227
280 271 258 254 255 250 246 240 236 227 213 212 197 197 206 210 214 222 227 214 207 218 227 229 230 237 243 252 256 261 268 258 249 230 225 207 198 205 203 209 214 217 223 225
278 272 262 254 249 241 236 235 219 212 210 207 202 200 206 211 217 222 226 226 214 217 228 234 238 241 246 251 261 267 257 245 230 218 211 197 202 209 208 211 215 214 221 226
276 272 261 252 245 240 233 229 224 212 205 206 207 206 206 211 220 222 225 221 221 225 230 239 245 248 252 254 265 268 249 217 219 203 194 201 208 211 211 214 215 217 218 226
275 264 253 245 236 232 225 226 226 220 214 206 211 215 216 214 217 219 228 230 230 229 232 238 243 246 251 262 262 246 238 210 213 199 196 204 212 213 212 216 216 220 223 228
264 251 247 233 222 221 224 227 223 217 215 216 221 220 217 220 220 219 224 227 228 230 233 238 243 253 256 257 245 246 229 216 213 201 200 205 215 218 215 216 219 224 229 235
249 240 226 217 215 216 223 229 227 224 224 223 225 226 223 220 220 221 224 228 230 230 233 239 245 248 249 240 238 238 216 214 210 207 210 208 213 218 216 218 223 229 235 241
240 230 220 218 213 216 227 224 215 219 226 226 227 228 227 223 223 221 225 228 230 231 236 240 239 232 239 234 226 226 217 214 218 211 216 220 221 220 220 221 226 231 237 244
227 216 216 218 225 228 226 218 212 213 222 223 219 226 227 226 225 224 223 226 228 232 236 234 230 233 238 227 218 221 210 218 215 218 219 223 226 227 231 231 234 236 239 243
219 213 210 210 222 220 218 217 221 222 224 223 218 219 222 223 224 224 225 225 229 229 230 228 228 235 235 224 217 223 213 214 217 216 222 226 229 229 230 236 240 243 247 248
212 213 210 208 214 212 215 212 208 215 224 223 221 218 220 220 222 225 228 229 224 223 218 223 231 232 236 217 218 222 216 216 216 217 221 222 226 232 229 235 234 245 250 250
228 214 214 215 213 209 213 209 207 213 218 219 222 224 222 221 222 224 227 230 225 216 215 228 233 235 235 215 221 219 220 221 222 222 221 221 221 223 231 233 237 235 245 250
226 215 219 216 219 218 221 218 212 214 218 217 218 218 218 220 220 221 224 224 226 224 225 230 231 231 235 218 221 220 220 223 223 224 226 228 224 222 223 227 231 234 238 246
220 209 215 213 216 218 223 224 223 219 220 221 220 221 222 221 221 222 223 225 227 230 230 230 231 235 226 221 221 219 222 222 225 225 228 231 233 229 230 227 230 232 236 241